Wind_Speed
22 21 21 20 20 20 21 21 22 21 19 18 18 19 20 20 21 22 23 24 24 24 25 25 25 26 27 28 29 29 30 32 32 33 34 35 35 35 36 36 37 38 38 38
23 23 22 21 20 21 21 21 21 21 19 20 20 21 21 21 21 22 23 23 24 24 24 24 25 25 25 25 26 27 28 30 31 31 32 33 34 35 36 36 36 37 38 38
24 24 24 22 21 21 21 21 22 21 21 21 22 22 23 22 23 23 23 23 23 23 24 24 24 25 25 25 25 26 27 28 29 29 30 31 32 34 35 36 36 36 38 39
25 25 24 22 21 21 21 21 22 22 22 22 22 22 23 23 23 24 24 23 23 24 24 25 25 24 24 25 25 25 26 27 28 29 30 31 32 33 34 35 35 35 37 38
25 24 24 21 21 21 21 21 21 22 22 21 22 22 23 24 24 24 24 25 24 24 24 24 25 25 25 26 26 26 26 27 28 29 30 32 33 33 34 35 35 35 35 35
23 23 23 21 21 21 21 21 21 22 22 22 22 22 22 23 23 24 23 23 24 25 25 25 25 25 25 26 26 27 28 28 29 30 31 32 33 34 34 35 35 36 36 36
24 24 23 21 21 22 22 21 22 22 22 22 22 23 23 24 24 24 24 24 24 25 25 25 26 26 26 26 27 27 28 29 30 31 32 32 33 34 34 35 35 36 37 37
24 25 23 22 22 22 22 22 21 21 22 22 22 23 23 24 25 25 25 25 25 25 26 26 26 27 27 28 28 28 29 29 30 31 31 32 33 33 34 34 35 36 36 37
23 23 23 23 23 22 22 22 22 22 22 22 23 23 24 24 24 25 26 26 26 27 27 27 28 28 29 29 30 30 31 31 31 32 32 32 33 33 34 35 35 36 36 37
23 22 22 22 22 22 22 22 22 22 22 22 22 23 23 24 24 25 26 27 28 28 28 28 29 29 30 30 31 32 32 33 33 33 33 33 34 34 34 35 35 35 35 35
23 23 22 22 22 23 23 23 23 23 24 23 23 23 23 23 24 25 26 26 27 28 28 28 29 30 30 31 31 31 32 33 33 34 34 34 34 35 35 35 35 35 35 34
24 24 24 23 24 24 24 24 24 24 24 24 24 25 24 24 24 25 25 26 26 26 27 28 29 29 30 31 31 32 32 33 33 33 34 34 34 34 34 34 34 34 33 33
26 26 26 26 25 25 25 25 24 24 24 25 25 25 26 26 25 25 25 26 26 27 27 27 27 28 29 29 30 31 31 32 32 32 32 32 33 33 33 33 33 33 32 32
27 27 26 26 26 25 25 25 25 26 26 26 26 26 27 27 27 27 27 27 27 27 28 28 29 29 29 30 30 31 32 32 33 32 32 31 31 31 31 31 31 31 32 31
26 26 26 26 25 25 26 26 26 27 27 28 28 28 29 29 29 29 29 28 28 28 28 28 29 30 30 30 31 31 32 32 32 32 31 31 30 30 30 30 30 30 30 30
26 26 26 26 26 26 26 26 27 28 28 29 30 30 30 31 31 30 30 29 29 28 28 28 29 30 30 31 32 32 32 32 32 31 31 30 29 28 28 28 29 29 29 30
27 27 27 27 27 27 27 27 27 28 29 30 30 31 31 32 32 32 30 30 29 29 29 29 29 29 30 31 31 31 31 31 31 30 29 29 29 28 28 28 28 28 28 28
28 28 28 28 28 27 27 27 28 28 29 29 30 31 32 32 32 31 30 30 29 29 29 29 30 30 30 30 30 30 30 30 30 30 29 29 28 28 28 27 27 27 27 27
27 27 27 28 27 27 27 27 28 28 28 29 30 31 31 31 30 30 30 29 29 29 29 29 29 30 30 30 30 29 29 29 29 29 28 28 28 28 28 27 27 26 26 27
28 28 28 27 27 27 28 28 28 28 29 29 29 30 30 30 30 29 29 29 30 30 30 29 29 29 29 29 29 29 28 28 28 28 28 28 28 28 27 27 27 26 26 26
29 28 28 27 28 28 28 29 29 29 29 30 30 30 30 29 29 29 29 29 30 30 30 29 29 29 29 28 28 28 28 28 27 27 27 27 27 27 27 26 26 26 25 25
28 28 27 27 27 27 28 29 29 30 30 30 30 30 29 29 29 28 28 28 29 29 29 29 29 28 28 28 28 28 28 28 28 28 27 27 26 26 26 25 25 25 24 24
27 27 26 26 27 27 27 28 28 29 29 29 29 29 28 28 28 28 28 29 29 28 28 28 28 28 27 27 28 28 28 28 28 27 27 26 26 25 25 25 25 24 24 24
27 26 26 27 27 27 28 28 28 28 28 28 28 28 28 28 28 28 29 29 29 28 28 28 27 27 27 28 28 28 27 26 26 26 26 26 25 25 25 24 24 23 23 23
28 27 27 27 28 28 28 29 29 29 28 28 28 27 27 27 28 28 28 28 29 29 29 28 28 28 28 28 27 27 26 25 25 25 25 25 25 24 24 24 23 22 22 22
28 28 28 28 29 29 29 29 29 29 28 28 27 27 27 27 27 27 27 27 28 28 28 28 28 28 28 27 26 26 25 25 24 24 24 24 24 23 23 23 22 22 21 21
29 28 29 29 30 30 30 30 29 29 28 28 27 27 27 27 27 27 27 27 27 27 27 27 27 27 27 26 26 26 25 25 25 24 24 24 23 23 22 22 21 21 20 20
Wind_Direction
299 298 297 292 288 286 285 284 287 292 292 291 283 279 278 276 276 277 277 275 274 272 270 268 267 266 266 265 264 265 264 263 263 263 264 263 263 263 263 264 263 261 262 263
296 295 294 291 290 287 286 284 286 289 288 290 286 280 278 278 278 278 279 276 274 273 270 268 268 268 266 265 266 268 267 266 265 266 266 265 264 264 263 264 266 265 264 264
296 294 290 289 290 289 288 285 283 284 285 287 284 279 279 280 280 280 281 280 277 275 272 270 270 270 268 267 267 270 269 269 269 269 268 268 267 266 265 265 267 267 265 264
296 294 291 290 288 287 287 285 282 282 284 286 285 283 281 281 282 281 281 279 277 275 274 272 271 271 270 269 270 272 272 271 271 271 270 270 270 269 267 266 266 267 267 266
298 295 294 292 289 288 287 284 283 284 285 283 282 283 281 281 281 282 282 279 277 275 274 273 271 271 271 271 272 273 274 273 274 274 273 272 271 271 269 269 269 269 269 268
297 297 295 295 291 287 285 283 282 285 286 285 282 282 281 280 280 281 281 280 277 276 275 273 272 272 273 273 274 275 276 277 276 276 275 274 273 272 271 272 272 271 270 270
293 294 294 296 292 286 285 285 283 284 285 285 284 284 281 280 279 280 280 280 279 277 277 275 274 273 275 275 276 277 278 279 279 278 276 275 274 273 272 273 273 272 271 271
294 292 293 293 292 286 283 283 283 284 285 284 283 283 282 281 281 280 278 278 277 276 276 276 275 274 275 276 277 278 280 281 281 281 278 276 275 274 273 274 273 272 271 271
294 294 292 291 289 286 283 282 282 283 285 286 285 285 284 282 282 282 280 278 277 276 275 275 275 275 275 276 277 278 280 281 281 282 281 279 276 275 275 275 275 274 272 271
293 292 290 290 288 283 281 281 282 282 284 285 286 286 286 283 282 283 282 280 278 276 275 275 275 276 276 277 278 279 281 282 282 282 280 279 276 275 275 275 275 274 273 272
293 292 289 288 287 284 282 282 284 283 283 284 285 286 287 286 286 285 285 283 280 278 276 275 275 276 276 277 277 279 281 282 282 282 282 280 278 276 276 276 276 276 274 273
294 293 290 288 286 283 281 282 283 283 282 284 285 285 286 287 289 290 288 285 283 282 280 279 278 278 278 278 279 280 281 282 282 283 282 281 279 278 277 276 276 275 273 273
292 292 289 286 285 284 282 283 282 282 282 283 283 285 285 286 288 289 288 287 285 283 283 282 281 280 280 281 281 282 283 284 284 284 284 281 279 277 277 277 277 274 272 272
290 289 287 286 284 283 282 282 282 282 282 282 282 283 284 285 286 287 287 286 286 284 282 282 282 282 282 283 283 283 284 285 285 285 284 282 280 279 277 277 277 275 274 273
288 288 287 285 284 282 281 281 282 281 281 280 281 283 284 284 284 284 285 286 286 285 283 282 282 282 283 284 284 284 284 285 285 284 284 282 281 279 277 276 276 275 273 272
288 287 287 285 284 282 281 282 281 281 281 280 281 282 283 283 283 283 284 285 285 284 284 284 283 283 284 284 285 285 285 285 285 284 284 282 280 279 278 277 276 274 273 271
289 288 287 287 285 283 282 282 283 282 281 281 281 282 282 283 282 282 283 283 283 284 284 284 284 284 284 285 285 285 285 285 285 284 283 282 281 280 279 278 276 272 271 269
290 289 288 286 285 283 283 283 284 284 283 283 283 284 283 283 282 281 281 280 280 282 284 285 285 285 285 285 285 285 286 286 285 283 282 281 280 278 278 278 277 273 270 268
291 290 289 288 286 284 283 284 285 286 287 286 286 286 285 283 282 280 280 279 279 280 282 284 285 286 286 286 287 287 287 287 285 283 281 280 280 278 277 277 277 275 271 269
292 292 291 290 289 287 285 285 286 287 287 287 288 287 286 284 282 281 280 278 278 279 281 283 285 287 287 286 286 286 286 286 285 284 282 281 281 279 277 277 277 276 274 272
292 291 290 289 288 288 287 286 287 288 288 287 286 286 285 284 282 280 279 278 278 279 281 283 286 287 287 287 287 286 286 287 286 285 284 283 282 281 278 277 277 276 275 275
293 291 290 289 289 289 288 287 288 287 287 287 287 285 284 283 282 281 280 280 279 281 283 284 286 287 287 287 287 286 286 287 286 284 284 283 283 281 279 277 277 276 274 273
292 291 290 290 290 290 289 289 289 288 288 288 287 286 285 284 282 282 282 281 282 283 284 285 285 286 286 287 287 286 286 286 286 284 283 283 282 281 279 278 277 275 272 272
289 289 290 290 291 292 292 292 290 289 288 289 288 287 286 285 284 284 283 282 282 283 284 285 285 286 287 287 288 288 287 287 286 285 283 282 281 280 279 277 276 274 273 272
287 287 289 290 292 293 294 294 292 290 289 290 289 288 287 286 286 286 285 283 282 283 284 284 285 286 286 287 288 287 286 286 287 286 285 283 282 280 278 276 275 273 272 272
285 287 289 291 293 295 296 295 294 292 290 289 289 288 287 287 288 288 286 285 284 283 283 283 284 284 284 285 286 286 286 286 287 287 285 283 282 280 279 276 274 272 272 271
284 286 288 291 293 295 295 295 295 293 291 290 289 288 288 288 288 288 287 286 286 285 284 284 284 284 283 284 284 284 285 285 286 286 285 283 281 279 278 276 273 271 270 269
Height
5638 5636 5635 5634 5632 5631 5630 5630 5629 5628 5628 5628 5627 5627 5627 5627 5627 5627 5627 5627 5627 5627 5627 5628 5628 5629 5629 5629 5630 5630 5631 5632 5633 5634 5634 5636 5637 5638 5639 5640 5642 5643 5645 5646
5633 5632 5630 5628 5627 5626 5625 5624 5623 5623 5623 5623 5622 5622 5622 5622 5621 5621 5621 5621 5621 5621 5621 5621 5621 5622 5622 5622 5622 5623 5623 5624 5624 5625 5626 5627 5627 5629 5630 5631 5632 5633 5635 5636
5627 5626 5624 5623 5624 5622 5620 5619 5619 5617 5619 5617 5617 5617 5616 5616 5615 5615 5614 5614 5614 5614 5614 5614 5615 5615 5615 5615 5615 5615 5615 5616 5616 5617 5617 5618 5619 5620 5621 5622 5623 5624 5625 5626
5621 5620 5618 5621 5618 5616 5615 5614 5613 5613 5612 5612 5611 5611 5610 5610 5609 5609 5608 5608 5608 5607 5608 5608 5608 5608 5608 5608 5608 5608 5608 5608 5609 5609 5609 5610 5610 5611 5612 5613 5613 5614 5615 5615
5615 5613 5612 5613 5612 5610 5609 5609 5608 5607 5607 5606 5605 5605 5605 5604 5603 5602 5602 5601 5601 5601 5601 5601 5601 5601 5601 5601 5601 5601 5601 5600 5600 5600 5601 5601 5601 5601 5602 5603 5603 5604 5604 5605
5609 5607 5607 5609 5607 5604 5604 5604 5604 5602 5601 5600 5599 5599 5600 5598 5597 5596 5595 5595 5595 5594 5594 5594 5594 5594 5594 5594 5594 5594 5593 5593 5592 5592 5592 5592 5592 5592 5592 5593 5593 5594 5594 5594
5604 5602 5601 5603 5601 5599 5599 5600 5598 5596 5595 5594 5593 5592 5592 5591 5590 5589 5589 5588 5588 5587 5587 5587 5587 5587 5587 5587 5587 5586 5585 5585 5584 5583 5583 5583 5583 5583 5583 5583 5583 5583 5583 5584
5598 5596 5598 5596 5594 5593 5593 5592 5590 5589 5589 5588 5587 5586 5585 5584 5583 5583 5582 5581 5581 5581 5580 5580 5579 5579 5579 5579 5579 5578 5578 5577 5576 5575 5574 5574 5573 5573 5573 5573 5573 5573 5572 5572
5593 5593 5590 5588 5587 5586 5586 5585 5584 5583 5582 5581 5580 5580 5579 5578 5577 5576 5575 5574 5574 5573 5573 5572 5572 5572 5571 5571 5570 5570 5569 5568 5567 5566 5565 5564 5564 5563 5563 5563 5562 5562 5562 5561
5586 5585 5583 5581 5580 5579 5579 5578 5577 5577 5576 5575 5574 5573 5572 5571 5570 5569 5567 5566 5566 5565 5565 5564 5564 5563 5563 5562 5562 5561 5560 5559 5558 5557 5556 5555 5554 5553 5553 5552 5552 5551 5551 5550
5580 5579 5577 5576 5574 5574 5573 5572 5571 5570 5569 5568 5568 5567 5565 5564 5563 5561 5560 5558 5558 5557 5556 5556 5555 5555 5554 5554 5553 5552 5551 5550 5549 5547 5546 5545 5544 5543 5542 5542 5541 5541 5540 5540
5574 5573 5570 5570 5568 5567 5566 5565 5564 5564 5563 5562 5561 5560 5559 5557 5556 5554 5552 5551 5550 5549 5548 5547 5547 5546 5545 5545 5544 5543 5541 5540 5539 5537 5536 5535 5534 5533 5531 5531 5530 5530 5529 5529
5567 5565 5563 5562 5561 5560 5559 5558 5558 5557 5556 5555 5554 5553 5551 5550 5549 5547 5545 5544 5543 5541 5541 5540 5539 5538 5537 5536 5535 5533 5532 5531 5529 5528 5526 5525 5524 5523 5522 5522 5520 5520 5519 5519
5559 5557 5556 5555 5554 5553 5552 5551 5550 5550 5549 5547 5546 5545 5544 5542 5541 5539 5538 5536 5535 5533 5532 5531 5530 5529 5528 5526 5525 5524 5523 5521 5520 5518 5516 5515 5514 5513 5512 5512 5511 5510 5509 5509
5552 5551 5549 5547 5546 5546 5544 5544 5543 5542 5541 5540 5539 5537 5536 5534 5533 5531 5530 5528 5526 5525 5524 5523 5521 5520 5519 5517 5516 5515 5513 5511 5510 5508 5507 5505 5504 5503 5503 5502 5501 5501 5500 5500
5545 5543 5541 5540 5539 5538 5537 5536 5535 5534 5533 5532 5530 5529 5527 5525 5524 5523 5521 5520 5518 5517 5515 5514 5512 5511 5510 5508 5507 5505 5503 5502 5500 5499 5498 5496 5495 5494 5493 5493 5492 5492 5492 5492
5537 5535 5534 5533 5531 5530 5529 5528 5527 5525 5524 5523 5521 5520 5518 5516 5515 5514 5512 5511 5510 5508 5507 5505 5504 5502 5501 5499 5497 5495 5494 5492 5491 5489 5488 5487 5486 5485 5485 5484 5483 5483 5483 5483
5528 5527 5526 5524 5523 5522 5520 5519 5518 5516 5515 5514 5512 5510 5509 5507 5506 5504 5503 5502 5501 5499 5498 5496 5495 5493 5491 5489 5488 5486 5485 5483 5481 5480 5479 5478 5477 5477 5476 5475 5475 5474 5474 5474
5520 5519 5517 5516 5514 5513 5512 5511 5509 5508 5506 5504 5503 5501 5499 5497 5496 5495 5494 5493 5492 5491 5489 5487 5485 5484 5482 5480 5479 5477 5475 5474 5472 5471 5470 5469 5468 5468 5467 5467 5466 5465 5465 5465
5512 5510 5509 5507 5506 5504 5503 5502 5500 5499 5497 5495 5493 5492 5490 5488 5487 5486 5485 5483 5482 5481 5480 5478 5476 5475 5473 5471 5470 5468 5467 5465 5464 5462 5461 5460 5459 5458 5458 5457 5457 5457 5456 5456
5503 5502 5500 5499 5497 5496 5494 5493 5491 5490 5488 5486 5484 5482 5480 5479 5477 5476 5475 5474 5473 5472 5471 5469 5467 5466 5464 5462 5461 5459 5458 5456 5455 5454 5453 5452 5451 5450 5449 5449 5448 5448 5448 5447
5495 5493 5492 5490 5489 5487 5486 5484 5482 5481 5479 5477 5474 5473 5471 5470 5468 5467 5466 5465 5464 5463 5461 5460 5458 5457 5455 5454 5452 5451 5449 5448 5446 5445 5444 5443 5442 5441 5440 5440 5439 5439 5439 5439
5487 5485 5484 5482 5481 5479 5477 5475 5473 5471 5469 5467 5465 5464 5462 5460 5459 5458 5458 5456 5455 5454 5453 5451 5450 5448 5447 5445 5443 5442 5440 5439 5437 5436 5435 5434 5433 5432 5431 5431 5430 5430 5430 5430
5479 5477 5476 5474 5473 5471 5469 5467 5464 5462 5460 5458 5456 5455 5453 5452 5451 5449 5448 5447 5446 5445 5444 5442 5441 5439 5438 5436 5435 5433 5431 5430 5428 5427 5426 5425 5424 5423 5423 5422 5422 5422 5422 5422
5471 5469 5468 5466 5465 5463 5460 5458 5456 5453 5451 5450 5448 5446 5445 5443 5442 5441 5439 5438 5437 5436 5435 5433 5432 5431 5429 5427 5426 5424 5423 5421 5420 5418 5417 5416 5415 5414 5414 5414 5413 5413 5414 5414
5462 5461 5460 5458 5456 5454 5452 5450 5447 5445 5443 5441 5439 5438 5436 5435 5433 5432 5430 5429 5428 5426 5425 5424 5423 5421 5420 5419 5417 5416 5414 5413 5412 5410 5409 5408 5407 5406 5405 5405 5405 5405 5405 5405
5453 5452 5451 5449 5447 5445 5443 5441 5439 5436 5434 5433 5431 5429 5428 5426 5425 5423 5422 5420 5419 5417 5416 5415 5413 5412 5411 5410 5409 5407 5406 5405 5403 5402 5401 5400 5399 5398 5398 5397 5397 5397 5397 5398